Disclaimer

Please do not use the information listed here in-flight or in-navigation, as they are not provided to us by the airports but are provided by volunteers, so they might be outdated.

Search


Regions


Airport information page

Radio informations:
CHITA TWR - 118.1 MHz
CHITA VOLMET - 128.3 MHz
CHITA RADAR - 122.0 MHz

Airport informations:
Latitude: 52° 01' 34.74" N
Longitude: 113° 18' 20.00" E
Elevation: 2272 feet - 693 meters
Operating hours: Remarks
Operating agency: Civil government, landing fees and diplomatic clearance may be required
Timezone: UTC+9(+10DT) - Last Sunday in March to last Sunday in October
Fuel: N/A

Runway information:
11/29 - 9187 x 184 feet< - >2800 x 56 meters
11L/29R - 5905 x 245 feet< - >1800 x 75 meters

Recent METARs:
UIAA 212030Z 18003MPS 9999 NSC M09/M14 Q1011 R29/410150 NOSIG RMK QFE700/0934
UIAA 212100Z VRB01MPS 9999 NSC M09/M14 Q1012 R29/410150 NOSIG RMK QFE700/0934
UIAA 212130Z VRB01MPS 9999 NSC M08/M14 Q1012 R29/410150 NOSIG RMK QFE701/0934

Airport on the map: